Regional Weather Roundup
Issued by NWS

Home | Current Version | Previous Version | Text Only | Print | Product List | Glossary Off
Versions: 1 2 3 4 5 6 7 8 9 10 11 12 13 14 15 16 17 18 19 20 21 22 23 24 25 26 27 28 29 30 31 32 33 34 35 36 37 38 39 40 41 42 43 44 45 46 47 48 49 50

000
ASUS43 KLMK 270310
RWRKY
KENTUCKY REGIONAL WEATHER ROUNDUP
NATIONAL WEATHER SERVICE LOUISVILLE KY
1100 PM EDT SUN MAR 26 2017

NOTE "FAIR" INDICATES FEW OR NO CLOUDS BELOW 12,000 FEET
WITH NO SIGNIFICANT WEATHER AND/OR OBSTRUCTIONS TO VISIBILITY.

KYZ001>023-026-027-061>063-070>075-270400-
WESTERN AND SOUTH CENTRAL KENTUCKY

CITY           SKY/WX    TMP DP  RH WIND       PRES   REMARKS
PADUCAH        MOCLDY    54  50  86 CALM      29.97F
HENDERSON      PTCLDY    50  45  81 CALM      29.99R
OWENSBORO      PTCLDY    53  49  86 CALM      30.00R
HOPKINSVILLE   CLOUDY    60  51  74 CALM      29.99S
BOWLING GREEN  CLOUDY    63  53  70 CALM      30.00R
GLASGOW        CLOUDY    61  54  77 CALM      30.00S
$$

KYZ024-025-028>034-038-045-046-053-270400-
NORTH CENTRAL KENTUCKY

CITY           SKY/WX    TMP DP  RH WIND       PRES   REMARKS
LOUISVILLE/SDF PTCLDY    59  49  69 W7        29.99R
LOUISVILLE/LOU CLEAR     60  49  66 W3        29.99S
FORT KNOX      CLEAR     55  49  82 W6        29.98S
$$

KYZ035>037-039>044-047>052-055>060-089>105-270400-
NORTHEAST KENTUCKY

CITY           SKY/WX    TMP DP  RH WIND       PRES   REMARKS
LEXINGTON      LGT RAIN  61  55  81 S8        29.99S
COVINGTON      PTCLDY    55  54  96 SW5       29.97R
FRANKFORT      CLEAR     60  53  77 W3        29.98R
$$

KYZ054-064>069-076>088-106>120-270400-
SOUTHEAST KENTUCKY

CITY           SKY/WX    TMP DP  RH WIND       PRES   REMARKS
JACKSON        CLOUDY    59  55  87 SW5       30.02S
LONDON         CLOUDY    61  55  81 S5        30.03S
SOMERSET       CLOUDY    63  50  63 SW5       30.04S
MIDDLESBORO    PTCLDY    56  54  92 CALM      30.06S
MONTICELLO     CLOUDY    63  53  70 SW14      30.04S
$$




USA.gov is the U.S. government's official web portal to all federal, state and local government web resources and services.